Weather in Moscow

Russia / Moscow Oblast     55°45′20″N   37°37′02″E
temp.,
°C
wind,
m/s
gust,
m/s
humid.,
%
clouds,
%
prec.,
mm/h
press.,
hPa
HPBL,
m
20 january, thu
thu2000:00−8ssw41295100 0.0 1011312
03:00−5ssw51394100 0.1 1009424
06:00−5ssw51394100 0.1 1007468
09:00−4ssw51293100 0.1 1006583
12:00−3ssw51293100 0.1 1005626
15:00−2s61492100 0.1 1003750
18:00−4s61492100 0.1 1002637
21:00−4s61492100 0.1 1001749
21 january, fri
fri2100:00−4s51395100 0.9 1001709
03:00−4s51295100 1.6 1001589
06:00−4sse41194100 0.2 999483
09:00−5sse41096100 0.8 999474
12:00−5se5996100 1.4 998504
15:00−5se4896100 2.4 997506
18:00−5se4896100 0.8 998364
21:00−7se2698100 0.8 999131
22 january, sat
sat2200:00−10ese279881 0.0 1000118
03:00−11ese2798100 0.0 1001131
06:00−10ese3996100 0.1 1002229
09:00−8e4996100 0.6 1004332
12:00−4se3796100 0.7 1007547
15:00−4se369697 1.1 1009482
18:00−6ese489685 0.3 1013299
21:00−8ese389686 0.4 1016244
23 january, sun
sun2300:00−13e259997 0.1 101980
03:00−15ene259997 0.1 102285
06:00−18ene1110098 0.1 102420
09:00−19ne12100100 0.1 102731
12:00−12ne129598 0.1 1029126
15:00−10nne139668 0.1 1030141
18:00−16n2210084 0.0 103310
21:00−18n2210094 0.0 103524
24 january, mon
mon2400:00−18nne2210085 0.0 103528
03:00−20nne1110097 0.0 103611
06:00−20n1110098 0.0 103611
09:00−20nne1110096 0.1 103718
12:00−12ene239696 0.0 1035136
15:00−10nne13965 0.0 1034122
18:00−16n2210081 0.0 103313
21:00−19ne1110099 0.0 10339